Location: Newark
(39.6867°N, 100.6772°W)
Time: 21:42:45
(UTC+00:00)

Vanguard 1 Rocket - Pass Details

Date: 24 October 2019
Orbit: 651 x 4225 km, 34.3° (Epoch: 14 November)

Event Time Altitude Azimuth Distance (km) Brightness Sun altitude
Rises 23:43:16 0° 285° (WNW) 7,849 13.3 0.9°
Reaches altitude 10° 23:49:27 10° 276° (W) 7,141 13.4 -0.3°
Maximum altitude 00:08:56 30° 227° (SW) 5,826 12.3 -3.9°
Drops below altitude 10° 00:26:59 10° 175° (S) 6,501 11.8 -7.4°
Sets 00:32:25 0° 165° (SSE) 7,067 11.9 -8.4°
